User: anonymous   Login
Location: Unspecified
(0.0000°N, 0.0000°E)
Time: 19:10:19
(UTC+00:00)
Language:

INTELSAT 39 - Orbit

View from above orbital plane
View from above orbital plane
View from above satellite
View from above satellite

Ground track
Ground track

The orbit is defined by the following mean orbital elements,

1 44476U          26145.59577514 +.00000000 +00000-0 +00000-0 0 00009
2 44476   0.0157 311.5451 0000520  16.9758 191.0831  1.00271578    07
Epoch (UTC): 25 May 2026 14:17:54
Eccentricity: 0.0000520
inclination: 0.0157°
perigee height: 35784 km
apogee height: 35789 km
right ascension of ascending node: 311.5451°
argument of perigee: 16.9758°
revolutions per day: 1.00271578
mean anomaly at epoch: 191.0831°

The dashed part of the orbit path shows where the satellite is in the earth's shadow,  

DLR